Location: Mohawk View
(42.7837°N, 73.7885°W)
Time: 08:37:16
(UTC+00:00)

Cosmos 2058 - Pass Details

Date: 17 June 2021
Orbit: 563 x 582 km, 82.5° (Epoch: 28 July)

Event Time Altitude Azimuth Distance (km) Brightness Sun altitude
Exits shadow 06:40:56 51° 227° (SW) 715 3.0 -19.6°
Maximum altitude 06:41:43 64° 280° (W) 629 2.9 -19.5°
Drops below altitude 10° 06:45:48 10° 2° (N) 1,865 6.5 -19.2°
Sets 06:48:00 0° 6° (N) 2,767 7.7 -19.0°
